Location: Anglesey
(53.1800°N, 4.2200°W)
Time: 22:29:55
(UTC+00:00)

Envisat - Pass Details

Date: 11 October 2017
Orbit: 764 x 766 km, 98.2° (Epoch: 13 December)

Event Time Altitude Azimuth Distance (km) Brightness Sun altitude
Exits shadow 20:30:07 25° 147° (SSE) 1,527 4.1 -18.7°
Maximum altitude 20:33:06 67° 70° (ENE) 834 2.9 -19.2°
Drops below altitude 10° 20:38:10 10° 349° (N) 2,319 5.8 -19.9°
Sets 20:40:30 0° 347° (NNW) 3,250 6.6 -20.3°
